Powrót do katalogu

DELTA 1 DEB

AktywnyLEO
NORAD 10747·DEBRIS·🇺🇸 United States

Wystrzelony Jul 29, 1976 z Vandenberg Space Force Base

Loading…

Następne Przeloty (najbliższe 24 godziny)

TLE

ŚwieżeSource: Space-Track

Epoka: Sep 14, 2026, 11:24 UTC

1 10747U 76077AU  26257.47520872  .00002769  00000-0  33272-2 0  9996
2 10747 101.0913 262.7189 0130775 182.2420 342.0743 13.64355324420503

Śledź DELTA 1 DEB w czasie rzeczywistym z AllMySat

Download on the App Store